Date,TemperatureHighF,TemperatureAvgF,TemperatureLowF,DewpointHighF,DewpointAvgF,DewpointLowF,HumidityHigh,HumidityAvg,HumidityLow,PressureMaxIn,PressureMinIn,WindSpeedMaxMPH,WindSpeedAvgMPH,GustSpeedMaxMPH,PrecipitationSumIn
2013-1-1,21.7,15.8,4.8,16.4,9.7,1.5,87,77,61,30.34,30.17,15,7,15,0.00
2013-1-2,29.5,17.4,3.9,19.3,11.3,0.5,89,77,63,30.29,30.17,13,3,13,0.00
2013-1-3,31.4,25.4,13.8,26.5,20.4,9.3,88,81,70,30.40,30.19,29,9,29,0.00
2013-1-4,34.6,23.3,10.4,25.0,17.4,6.4,87,79,67,30.38,30.30,25,6,25,0.00
2013-1-5,37.9,30.5,20.1,33.9,26.9,16.8,93,86,77,30.30,30.02,19,3,19,0.02
2013-1-6,37.0,27.2,20.8,33.1,22.5,16.6,87,82,79,30.26,30.01,33,16,33,0.00
2013-1-7,40.3,36.0,31.5,30.4,28.8,26.1,85,75,62,30.31,30.14,20,7,23,0.00
2013-1-8,45.5,35.2,26.5,35.2,29.5,23.6,90,80,63,30.18,30.07,18,6,18,0.00
2013-1-9,48.9,39.3,29.4,37.2,31.9,26.6,90,75,54,30.52,30.09,23,6,23,0.00
2013-1-10,49.1,37.7,29.6,48.3,32.6,25.3,97,82,58,30.50,29.81,19,7,19,0.91
2013-1-11,57.2,51.7,46.8,51.7,48.8,45.7,97,90,80,29.82,29.69,23,7,26,0.41
2013-1-12,53.1,39.8,25.2,48.2,34.9,22.4,91,82,76,30.00,29.72,23,10,25,0.00
2013-1-13,25.2,19.4,14.5,22.2,14.7,9.7,89,82,76,30.35,29.94,26,11,26,0.00
2013-1-14,27.2,17.8,12.6,16.6,12.5,8.9,87,80,62,30.53,30.35,13,3,13,0.00
2013-1-15,29.7,20.8,12.8,20.8,14.9,9.0,88,78,57,30.49,30.18,9,2,9,0.00
2013-1-16,38.7,28.6,15.5,29.4,20.4,11.7,86,72,53,30.18,29.94,25,4,26,0.01
2013-1-17,35.2,29.6,23.7,30.2,22.7,17.2,92,76,54,30.47,30.12,22,8,22,0.00
2013-1-18,47.2,35.4,22.7,33.2,26.2,18.2,85,70,56,30.48,30.02,26,6,26,0.00
2013-1-19,52.4,43.7,30.2,39.7,33.5,19.9,75,67,60,30.11,29.82,37,11,39,0.00
2013-1-20,30.2,19.2,15.7,18.1,11.5,7.9,82,72,58,30.37,30.11,34,13,39,0.00
2013-1-21,16.1,9.7,5.4,10.5,0.9,-3.4,81,67,49,30.42,30.29,31,15,31,0.00
2013-1-22,15.3,9.4,2.2,5.6,-0.6,-5.3,77,64,48,30.51,30.41,21,8,21,0.00
2013-1-23,33.9,21.3,13.9,19.4,10.3,3.6,72,62,49,30.43,30.16,28,7,28,0.00
2013-1-24,23.0,16.8,7.9,10.6,5.3,-1.0,80,60,48,30.69,30.33,20,8,21,0.00
2013-1-25,37.7,27.5,19.8,22.0,16.3,9.2,76,63,48,30.34,30.05,29,9,29,0.00
2013-1-26,31.3,22.3,9.9,18.2,11.8,5.2,84,65,46,30.45,30.26,15,4,15,0.00
2013-1-27,45.1,32.6,27.2,44.3,28.2,18.1,97,84,67,30.38,29.91,25,9,25,0.17
2013-1-28,56.0,50.4,45.1,55.5,49.6,44.3,98,97,96,29.95,29.76,19,6,20,0.01
2013-1-29,64.7,56.8,42.3,60.8,55.3,41.2,98,95,87,29.76,29.39,22,6,22,1.13
2013-1-30,42.3,31.8,18.4,41.0,29.3,13.1,97,90,79,29.83,29.27,40,16,40,0.36
2013-1-31,23.1,14.4,6.4,18.3,8.5,-0.1,83,77,67,30.35,29.82,37,19,37,0.00
2013-2-1,21.5,11.4,2.4,18.8,3.9,-3.4,89,72,61,30.50,30.23,24,8,24,0.00
2013-2-2,28.2,22.4,17.4,24.2,17.8,11.7,90,82,74,30.24,30.08,21,8,21,0.00
2013-2-3,29.2,23.9,17.9,22.8,17.9,14.9,93,78,61,30.16,30.01,30,9,30,0.00
2013-2-4,36.2,28.1,19.4,28.7,22.7,16.0,88,80,70,30.02,29.82,22,8,22,0.00
2013-2-5,40.6,28.6,18.1,32.9,24.7,15.4,92,86,73,30.13,29.87,21,5,24,0.00
2013-2-6,45.1,34.9,23.1,34.3,29.7,21.4,95,82,64,30.24,30.06,20,5,20,0.00
2013-2-7,37.4,35.8,34.6,36.4,33.9,31.7,96,93,86,30.08,29.86,24,7,24,0.54
2013-2-8,34.6,29.7,27.1,32.6,26.4,23.5,93,87,83,30.38,30.05,25,12,25,0.00
2013-2-10,50.1,44.8,37.2,47.8,41.1,32.3,95,88,63,29.87,29.49,39,13,39,0.54
2013-2-11,41.4,34.4,28.3,32.6,26.5,24.1,85,73,64,30.15,29.63,52,20,52,0.00
2013-2-12,39.4,31.3,26.3,28.6,25.8,23.2,89,80,64,30.18,29.96,16,5,16,0.00
2013-2-13,45.7,35.7,26.0,35.5,29.8,23.7,93,80,63,29.96,29.78,20,4,20,0.00
2013-2-14,40.1,37.3,33.4,33.2,31.6,29.7,88,80,71,30.05,29.73,29,10,29,0.00
2013-2-15,33.9,28.1,21.5,30.7,19.3,15.1,89,70,49,30.27,30.05,24,12,24,0.00
2013-2-16,29.3,21.1,14.6,19.7,13.7,8.7,84,73,60,30.27,30.18,27,9,27,0.00
2013-2-17,17.5,15.5,14.2,13.1,10.6,9.4,84,81,78,30.25,30.22,8,4,9,0.00
2013-2-18,53.2,42.1,24.5,47.3,36.4,18.6,94,81,67,29.81,29.47,41,15,43,0.38
2013-2-19,24.5,20.6,15.2,18.8,15.5,9.3,84,80,76,29.94,29.80,42,24,42,0.00
2013-2-21,29.0,26.9,25.7,25.8,24.7,23.7,93,91,81,30.16,29.90,29,12,29,0.00
2013-2-22,32.5,29.5,26.6,31.3,26.4,21.6,96,88,80,30.02,29.80,27,6,27,0.08
2013-2-23,29.5,24.9,20.5,21.9,19.2,16.5,85,79,71,30.04,29.99,17,6,17,0.01
2013-2-24,35.8,26.7,13.0,27.1,21.0,9.9,92,79,62,30.16,30.03,10,3,10,0.01
2013-2-25,42.9,34.9,24.2,34.9,29.0,21.2,91,79,66,30.15,29.85,21,6,23,0.00
2013-2-26,36.2,33.4,31.8,32.4,31.0,28.9,96,91,75,29.85,29.48,30,13,30,0.31
2013-2-27,32.4,31.6,30.0,31.1,30.2,28.7,96,95,93,29.83,29.60,18,11,18,0.05
2013-2-28,35.2,33.0,31.7,31.7,30.8,30.2,95,92,84,30.10,29.83,18,10,18,0.03
2013-3-1,31.7,27.8,24.7,30.4,23.9,20.5,95,85,77,30.25,30.09,16,10,16,0.01
2013-3-2,29.6,22.6,11.4,20.7,15.8,6.9,88,75,58,30.28,30.22,16,8,16,0.00
2013-3-3,34.7,22.5,7.9,20.4,14.4,5.1,92,72,51,30.24,30.10,10,2,10,0.00
2013-3-4,37.7,32.4,27.0,29.6,25.6,17.6,90,76,66,30.12,29.90,24,10,24,0.00
2013-3-5,34.9,31.4,27.3,31.5,28.8,24.4,95,90,80,30.12,29.87,30,12,30,0.06
2013-3-6,29.0,26.8,22.7,25.4,22.5,19.4,89,84,79,30.39,30.12,24,12,24,0.00
2013-3-7,34.9,29.5,24.9,27.5,24.4,21.4,89,81,71,30.46,30.38,12,4,12,0.04
2013-3-8,43.1,35.1,26.1,36.1,30.1,23.6,90,82,74,30.47,30.25,22,8,22,0.00
2013-3-9,48.6,41.6,36.6,43.1,37.2,32.3,94,84,77,30.26,29.77,24,11,24,0.48
2013-3-10,50.9,47.8,42.4,50.0,46.4,40.5,97,95,87,29.81,29.55,19,5,19,0.84
2013-3-11,45.9,35.5,30.4,44.9,33.2,25.9,97,91,83,29.93,29.62,34,12,34,0.04
2013-3-12,37.7,31.0,26.4,31.9,26.1,20.3,91,82,72,30.17,29.93,36,15,36,0.00
2013-3-13,35.9,28.5,23.1,23.9,20.7,17.9,85,73,49,30.40,30.16,29,13,29,0.00
2013-3-14,44.4,33.8,23.8,34.9,27.8,21.0,90,79,61,30.40,30.10,27,6,27,0.00
2013-3-15,52.3,41.4,30.2,42.7,36.0,28.0,93,81,66,30.10,29.68,11,3,11,0.00
2013-3-16,43.7,36.5,31.4,40.9,32.9,27.8,96,87,74,30.13,29.65,21,9,21,0.05
2013-3-17,36.9,33.1,30.1,29.7,27.2,23.7,87,79,70,30.18,29.92,20,9,20,0.00
2013-3-18,40.9,32.9,26.2,35.2,28.8,17.6,94,85,69,29.97,29.71,39,13,39,0.01
2013-3-19,39.7,29.2,20.6,21.0,16.6,11.4,73,60,40,30.19,29.94,35,16,36,0.00
2013-3-20,29.2,23.7,16.9,21.8,12.8,7.1,80,63,47,30.25,30.13,36,18,36,0.00
2013-3-21,37.4,24.2,12.8,20.7,12.7,8.6,83,63,38,30.16,30.04,16,4,19,0.00
2013-3-22,44.9,32.0,18.9,25.3,19.0,15.3,87,61,34,30.11,30.02,12,2,15,0.00
2013-3-23,47.3,38.3,29.9,28.0,25.6,23.2,79,61,41,30.11,29.97,20,5,20,0.00
2013-3-24,33.7,30.9,29.7,31.3,29.1,25.2,96,93,71,29.99,29.67,18,10,18,0.10
2013-3-25,35.1,31.2,27.6,28.7,27.0,24.4,96,85,73,30.17,29.80,23,12,23,0.04
2013-3-26,36.8,33.6,28.1,28.6,26.8,24.1,85,76,66,30.33,30.16,21,10,22,0.00
2013-3-27,44.1,36.2,29.6,27.6,25.8,21.9,84,67,48,30.40,30.32,12,4,15,0.01
2013-3-28,49.2,38.1,25.2,34.1,28.2,21.7,88,69,49,30.40,30.29,12,2,12,0.00
2013-3-29,58.1,45.9,34.3,37.7,32.8,29.8,84,62,38,30.32,30.21,10,2,11,0.00
2013-3-30,55.9,47.3,35.7,44.2,38.8,31.5,85,73,57,30.22,29.89,24,6,24,0.00
2013-3-31,59.9,49.6,38.4,46.8,39.9,29.2,93,72,41,29.97,29.80,34,14,35,0.00
2013-4-1,42.7,35.2,27.6,28.9,22.7,17.7,83,61,38,30.26,29.97,25,12,25,0.00
2013-4-2,46.0,33.8,22.1,24.2,19.8,14.1,85,60,28,30.36,30.26,24,8,25,0.00
2013-4-3,49.9,37.3,22.6,23.0,19.4,15.9,85,52,27,30.47,30.31,15,5,15,0.00
2013-4-4,59.9,45.7,29.3,29.6,24.2,20.7,75,45,25,30.31,30.01,17,3,17,0.00
2013-4-5,59.0,47.2,32.5,34.3,29.2,23.0,88,54,28,30.21,30.04,17,6,17,0.00
2013-4-6,71.4,57.3,43.4,51.7,36.6,24.0,72,47,29,30.06,29.63,33,11,33,0.01
2013-4-7,69.3,56.5,39.6,45.9,42.8,37.1,93,63,39,29.94,29.72,20,5,28,0.00
2013-4-8,72.2,63.3,56.8,60.1,55.7,42.6,94,77,55,29.85,29.57,29,7,29,0.58
2013-4-9,76.7,68.0,60.0,62.7,59.5,55.0,87,75,56,29.86,29.75,23,7,23,0.00
2013-4-10,60.8,46.6,41.9,54.5,44.5,39.8,96,92,82,29.91,29.66,30,10,30,0.73
2013-4-11,49.4,44.9,37.9,46.1,41.6,31.7,96,88,77,29.68,29.61,30,9,30,1.02
2013-4-12,44.2,39.6,37.4,36.5,34.2,31.6,91,81,71,29.94,29.64,32,11,34,0.10
2013-4-13,51.5,43.3,35.4,39.0,32.5,25.5,81,66,53,30.02,29.93,35,10,35,0.01
2013-4-14,74.8,60.4,46.4,54.4,46.1,36.0,80,61,39,29.95,29.58,32,12,32,0.01
2013-4-15,65.3,57.6,55.4,55.5,54.1,49.9,96,88,63,29.83,29.65,29,4,29,0.01
2013-4-17,58.9,53.9,46.3,57.5,52.5,44.7,96,95,93,29.96,29.67,39,11,39,0.02
2013-4-18,62.1,53.1,38.7,60.4,50.8,32.3,97,92,78,29.70,29.43,43,13,43,0.04
2013-4-19,41.6,38.0,35.2,33.7,31.2,28.8,81,76,68,30.05,29.62,39,19,39,0.03
2013-4-20,49.1,39.9,30.9,32.5,28.9,25.5,86,66,42,30.38,30.05,20,5,20,0.77
2013-4-21,57.3,47.3,37.6,42.9,36.2,29.7,77,66,54,30.47,30.27,28,12,29,0.37
2013-4-22,67.4,55.4,41.2,49.7,41.1,36.0,82,61,37,30.29,29.99,26,8,26,0.15
2013-4-23,56.1,45.2,38.4,50.3,42.8,36.5,94,91,80,30.03,29.91,22,10,22,2.44
2013-4-24,50.2,42.4,36.2,36.5,33.8,30.5,94,73,49,30.18,29.99,22,9,22,0.19
2013-4-25,55.7,47.3,39.8,36.4,33.1,26.9,82,59,40,30.32,30.14,31,10,31,0.00
2013-4-26,62.2,52.3,42.2,48.9,42.1,33.9,85,69,56,30.33,30.24,22,7,22,0.00
2013-4-27,61.0,53.2,43.5,51.3,47.4,41.6,95,82,56,30.29,29.97,19,4,19,0.02
2013-4-28,67.6,57.7,51.9,55.6,52.4,50.6,96,84,62,29.97,29.83,13,4,13,0.03
2013-4-30,84.6,78.0,71.1,59.6,56.8,54.3,61,49,36,29.91,29.77,22,8,23,0.00
2013-5-1,82.7,72.5,58.6,60.4,55.6,50.1,87,58,35,30.08,29.91,19,5,19,0.00
2013-5-2,68.9,59.0,45.1,58.1,51.4,42.2,92,76,60,30.15,30.05,25,10,25,0.17
2013-5-3,61.0,49.7,44.2,59.5,48.2,42.3,97,95,92,30.10,29.81,22,8,22,4.07
2013-5-4,63.0,57.9,53.4,57.9,55.3,51.7,95,91,75,30.02,29.83,23,6,23,0.39
2013-5-5,71.8,60.8,51.7,60.1,53.2,47.9,97,78,44,30.01,29.89,18,6,18,0.01
2013-5-6,76.7,64.8,54.0,55.3,49.8,42.3,92,62,32,30.01,29.93,22,8,22,0.00
2013-5-7,80.3,65.9,49.7,53.0,45.3,37.4,82,51,24,30.03,29.95,9,2,14,0.00
2013-5-8,80.2,68.1,51.4,58.4,50.8,44.2,86,57,31,30.02,29.93,16,1,16,0.00
2013-5-9,69.3,63.4,60.9,62.7,60.2,57.1,96,90,73,29.95,29.79,22,4,22,0.25
2013-5-10,61.8,54.4,50.3,60.2,51.8,47.5,96,91,86,29.99,29.79,21,8,21,0.08
2013-5-11,59.9,52.4,43.0,52.2,40.7,29.9,96,68,37,30.12,29.93,36,11,38,0.00
2013-5-12,57.2,47.8,38.0,35.3,31.3,26.0,76,55,35,30.20,30.12,29,10,29,0.00
2013-5-13,69.5,56.0,37.9,43.5,37.0,31.7,83,52,29,30.20,29.99,18,3,18,0.00
2013-5-14,89.0,72.5,54.2,66.2,55.7,42.7,75,57,41,29.99,29.67,26,6,26,0.00
2013-5-15,82.8,75.4,66.7,64.0,58.1,53.2,70,55,37,29.82,29.71,31,8,31,0.02
2013-5-16,83.3,70.6,59.6,63.4,59.3,53.1,93,70,42,29.92,29.80,40,3,40,0.68
2013-5-17,80.5,70.0,59.0,68.7,61.4,55.8,94,76,46,29.97,29.89,18,3,20,0.03
2013-5-18,80.3,71.4,63.8,67.9,64.6,62.0,95,80,57,29.99,29.87,16,4,16,0.00
2013-5-19,87.5,76.2,63.7,73.6,67.9,61.5,94,77,58,29.90,29.67,29,8,30,0.00
2013-5-20,81.3,71.9,62.5,68.3,63.2,60.3,95,75,51,29.82,29.64,56,7,56,0.61
2013-5-21,79.0,70.3,62.2,66.4,63.1,60.2,94,79,58,29.70,29.63,17,4,18,0.23
2013-5-22,70.8,64.6,59.2,60.9,58.0,55.2,94,80,61,29.79,29.61,25,7,27,0.06
2013-5-23,63.6,58.2,51.1,57.1,53.3,47.8,95,84,66,30.25,29.79,22,9,24,0.20
2013-5-24,65.9,54.6,42.0,47.7,43.0,38.4,93,67,40,30.44,30.25,14,3,14,0.00
2013-5-25,55.8,51.5,47.4,50.9,44.9,39.0,94,79,60,30.41,30.22,20,5,20,0.54
2013-5-26,64.0,56.8,50.7,59.9,54.0,48.2,96,90,84,30.26,30.03,27,8,27,1.04
2013-5-27,68.9,63.6,58.2,66.0,61.8,56.3,97,94,88,30.04,29.77,21,5,27,0.98
2013-5-28,76.9,70.2,64.7,71.2,66.4,62.2,95,88,76,29.89,29.70,29,6,29,0.52
2013-5-29,83.8,73.3,62.0,71.2,66.1,60.2,95,79,61,29.95,29.78,40,6,40,0.35
2013-5-30,82.5,72.2,62.4,72.1,66.5,60.3,96,83,62,29.86,29.71,44,9,44,0.99
2013-5-31,74.1,67.8,62.7,71.2,65.4,61.1,96,92,81,29.86,29.67,22,5,22,0.36
2013-6-1,74.3,67.0,62.6,69.0,62.9,58.4,95,87,64,29.80,29.66,27,6,27,0.65
2013-6-2,62.6,59.7,56.3,58.9,55.1,51.3,93,85,76,30.04,29.79,25,8,25,0.00
2013-6-3,66.8,59.2,47.8,53.5,49.6,43.8,96,72,54,30.13,30.01,13,3,13,0.00
2013-6-4,72.7,63.6,52.9,58.0,53.2,47.3,88,70,51,30.12,30.00,18,4,18,0.00
2013-6-5,77.5,67.7,56.5,62.9,58.6,53.9,92,74,52,30.04,29.86,12,2,12,0.00
2013-6-6,72.0,63.4,57.8,63.1,58.2,54.0,92,84,64,29.88,29.83,17,6,17,0.03
2013-6-7,73.5,63.6,53.5,58.8,54.8,50.6,92,74,57,29.92,29.87,18,6,18,0.00
2013-6-8,77.2,66.4,51.5,59.7,54.1,47.8,93,66,47,29.96,29.89,11,2,11,0.00
2013-6-9,79.7,67.5,62.0,66.2,60.9,56.8,94,80,57,29.93,29.75,30,4,30,0.50
2013-6-10,77.8,68.3,59.9,67.0,62.1,58.5,97,82,63,29.88,29.73,22,4,22,0.00
2013-6-11,76.2,65.5,59.9,68.1,61.5,57.9,95,87,74,29.93,29.87,11,2,11,0.00
2013-6-12,91.3,86.4,78.1,75.8,73.4,69.9,79,66,58,29.69,29.57,31,12,31,0.00
2013-6-13,81.7,73.7,65.7,69.1,60.5,54.7,94,66,41,29.98,29.65,28,10,28,0.01
2013-6-14,78.5,69.5,58.1,64.0,58.9,53.8,88,70,51,30.10,29.94,15,2,15,0.00
2013-6-15,68.8,67.8,67.0,61.8,60.7,59.8,82,78,74,29.99,29.95,7,1,7,0.00
2013-6-17,84.6,80.2,71.8,70.3,65.8,59.7,77,62,47,29.93,29.86,9,2,10,0.01
2013-6-18,80.0,72.4,65.0,67.3,63.4,56.8,96,74,56,30.01,29.85,15,4,15,0.00
2013-6-19,83.8,70.8,55.4,67.6,58.2,51.3,88,67,37,30.09,30.00,8,2,9,0.00
2013-6-20,89.0,77.7,63.4,69.1,64.2,58.9,89,65,43,30.10,30.00,14,3,15,0.00
2013-6-21,88.4,76.3,68.6,75.1,68.7,64.3,92,78,59,30.07,29.92,33,6,33,0.25
2013-6-22,84.6,76.7,69.7,76.1,71.0,65.2,91,83,74,30.04,29.93,25,4,25,0.00
2013-6-23,87.4,73.4,67.4,75.0,68.2,64.7,93,84,61,30.01,29.87,28,4,28,0.02
2013-6-24,86.2,72.3,67.5,76.2,68.0,64.4,94,87,66,30.08,29.84,45,4,45,0.02
2013-6-25,85.3,76.3,69.2,75.7,71.5,66.3,96,86,71,29.90,29.78,25,4,27,1.09
2013-6-26,80.6,71.4,66.8,73.5,68.7,65.0,96,91,73,29.82,29.71,32,4,32,0.29
2013-6-27,88.2,81.7,73.1,74.7,70.4,66.9,82,69,56,29.83,29.73,24,10,26,0.00
2013-6-28,83.5,75.7,67.5,67.0,63.4,58.7,90,67,45,29.78,29.63,33,11,33,0.00
2013-6-29,73.5,68.1,64.0,66.6,63.2,60.3,92,84,74,29.76,29.60,24,8,24,0.41
2013-6-30,79.0,68.3,60.6,65.3,60.7,53.3,93,78,52,29.97,29.76,21,8,21,0.01
2013-7-1,78.3,68.2,57.5,57.3,53.8,50.7,84,62,42,30.03,29.95,23,8,23,0.00
2013-7-2,74.8,66.7,56.8,59.3,54.9,47.6,86,67,41,30.05,30.00,20,5,20,0.00
2013-7-3,78.3,66.9,56.9,63.2,56.7,51.7,93,73,42,30.07,30.00,12,2,13,0.00
2013-7-4,83.5,72.8,61.7,67.8,62.6,58.7,92,72,46,30.07,29.99,11,2,11,0.00
2013-7-5,83.4,74.1,63.5,69.6,64.0,60.3,94,73,47,30.06,29.97,12,2,12,0.00
2013-7-6,83.4,74.0,64.0,71.6,66.9,61.9,95,80,55,30.03,29.94,13,2,14,0.00
2013-7-7,88.2,78.1,67.4,74.4,69.9,63.9,91,77,55,29.99,29.92,12,3,12,0.00
2013-7-8,85.3,78.3,72.5,76.2,72.5,69.0,94,83,69,30.03,29.94,16,2,19,0.53
2013-7-9,87.7,81.3,75.8,79.3,76.1,73.7,95,85,69,29.98,29.84,13,1,13,0.01
2013-7-10,84.8,78.7,65.0,75.4,70.4,62.0,93,77,58,29.99,29.80,22,6,22,0.00
2013-7-11,79.7,71.3,61.3,67.2,61.3,56.7,95,73,46,30.07,29.99,12,2,12,0.00
2013-7-12,83.2,70.4,55.0,63.2,58.0,52.4,93,68,41,30.13,30.04,10,1,10,0.00
2013-7-13,82.4,72.5,58.9,66.5,61.8,56.0,94,71,48,30.12,30.04,14,2,14,0.00
2013-7-14,87.0,77.3,65.1,72.4,68.0,62.5,92,74,56,30.15,30.07,14,2,14,0.00
2013-7-15,88.2,79.7,70.9,77.6,73.2,68.5,94,81,64,30.22,30.14,10,2,10,0.00
2013-7-16,89.0,80.8,73.2,77.1,74.1,71.7,96,81,59,30.28,30.20,10,2,10,0.00
2013-7-17,92.7,82.0,70.7,77.7,74.0,69.3,97,78,54,30.30,30.16,8,0,8,0.00
2013-7-18,92.0,83.3,72.4,78.1,74.7,70.9,96,77,57,30.17,29.95,11,1,12,0.00
2013-7-19,93.3,84.7,75.7,77.1,73.2,70.5,88,70,49,29.95,29.77,27,3,27,0.00
2013-7-20,86.1,78.7,68.5,71.9,68.4,62.7,92,72,50,29.89,29.79,13,3,14,0.00
2013-7-21,79.8,72.7,64.0,73.8,68.8,61.9,96,88,79,29.91,29.82,8,1,9,0.06
2013-7-22,86.6,76.3,65.1,74.1,69.9,63.9,97,82,63,29.85,29.73,30,2,30,0.01
2013-7-23,80.2,71.4,64.2,70.6,65.2,60.7,95,82,61,29.92,29.73,19,5,19,0.00
2013-7-24,76.8,66.3,55.4,60.8,56.3,52.7,95,72,46,30.04,29.92,16,3,16,0.00
2013-7-25,80.9,68.3,52.8,62.2,57.5,50.8,95,71,47,30.10,30.02,10,1,11,0.00
2013-7-26,73.4,66.4,60.6,69.5,62.8,57.5,96,88,79,30.04,29.90,17,2,17,0.76
2013-7-27,66.8,61.1,54.7,57.9,53.5,48.4,94,78,53,29.97,29.92,23,8,24,0.00
2013-7-28,71.8,61.5,52.5,57.5,52.9,48.1,93,75,55,30.05,29.93,22,6,23,0.00
2013-7-29,77.0,65.4,50.3,61.3,55.4,48.6,96,72,45,30.15,30.05,9,1,10,0.00
2013-7-30,69.3,66.3,63.0,67.8,63.6,57.7,97,91,72,30.14,30.01,14,4,14,0.60
2013-7-31,75.9,70.2,66.9,69.0,67.4,64.8,98,91,77,30.02,29.96,12,3,13,0.02
2013-8-1,81.1,72.1,62.7,68.1,63.7,60.2,96,77,51,30.04,29.93,14,3,16,0.01
2013-8-2,84.0,74.8,67.1,73.0,67.8,63.1,94,79,58,29.94,29.85,14,2,16,0.04
2013-8-3,80.3,71.5,61.5,69.4,62.9,57.9,95,76,51,30.11,29.93,13,3,13,0.00
2013-8-4,80.3,69.0,57.0,63.0,58.3,53.3,94,72,44,30.17,30.07,8,1,8,0.00
2013-8-5,77.0,68.2,59.3,68.7,63.0,57.0,94,84,73,30.09,29.85,14,2,14,0.03
2013-8-6,84.7,74.6,66.7,76.3,70.6,65.2,98,88,69,29.89,29.78,10,2,10,0.01
2013-8-7,85.7,76.9,68.4,77.1,72.3,65.7,96,86,66,29.91,29.77,16,4,16,0.00
2013-8-8,79.6,71.5,63.9,70.3,66.1,62.4,96,84,68,29.97,29.90,11,2,11,0.00
2013-8-9,79.8,68.8,58.9,67.0,61.6,57.5,96,80,58,30.02,29.96,6,0,6,0.00
2013-8-13,72.8,66.8,52.6,61.8,55.5,49.8,91,68,51,30.14,30.05,15,4,15,0.00
2013-8-14,74.0,61.0,47.5,59.0,52.5,45.9,96,76,47,30.22,30.13,11,1,12,0.02
2013-8-15,74.1,63.3,51.9,62.6,55.8,49.9,94,78,51,30.18,30.09,9,0,9,0.00
2013-8-16,78.8,67.1,56.1,64.1,57.6,51.9,93,74,42,30.17,30.11,11,2,11,0.00
2013-8-17,78.3,65.8,52.0,62.3,57.2,50.2,95,76,50,30.21,30.13,15,2,15,0.00
2013-8-18,84.7,68.0,52.6,68.3,58.9,50.9,96,76,47,30.18,30.08,9,1,9,0.00
2013-8-19,82.8,70.6,56.7,68.3,63.1,54.8,96,79,54,30.11,30.02,9,0,9,0.00
2013-8-20,85.0,74.0,63.8,71.0,66.1,61.8,95,78,53,30.09,30.00,14,2,14,0.00
2013-8-21,86.8,76.3,65.2,72.1,67.4,63.4,95,76,53,30.08,29.97,14,2,14,0.00
2013-8-26,90.3,84.0,77.3,75.5,73.9,71.7,86,73,56,30.05,29.99,10,2,12,0.00
2013-8-27,93.7,82.5,72.5,74.6,70.8,64.5,92,70,45,30.00,29.88,24,3,24,0.00
2013-8-28,92.8,82.9,73.9,78.4,71.6,64.5,92,70,56,29.96,29.88,20,5,20,0.02
2013-8-29,86.7,77.9,70.4,75.8,72.2,68.5,95,83,68,30.03,29.93,8,2,9,0.00
2013-8-30,97.6,82.7,70.5,77.3,72.4,65.1,96,74,43,29.94,29.75,22,3,22,0.00
2013-8-31,90.5,79.1,69.8,78.7,70.8,63.6,94,76,65,29.79,29.70,15,3,15,0.00
2013-9-1,88.5,75.3,64.9,73.9,67.7,62.1,98,80,50,29.83,29.72,21,4,21,0.02
2013-9-2,79.4,68.5,56.9,66.0,60.4,53.7,94,77,50,29.98,29.82,20,5,20,0.00
2013-9-3,77.8,64.6,53.2,62.4,56.9,51.2,96,78,51,30.09,29.98,10,2,10,0.00
2013-9-4,85.3,67.4,49.9,65.1,56.9,48.2,96,73,39,30.15,30.04,11,1,11,0.00
2013-9-5,87.1,73.3,59.0,69.8,63.4,56.7,94,73,50,30.18,30.11,9,1,9,0.00
2013-9-6,85.8,73.0,58.5,67.2,62.2,55.3,91,70,49,30.16,29.99,12,2,12,0.00
2013-9-7,86.9,75.6,64.0,72.5,66.6,61.4,93,75,54,30.00,29.86,15,2,15,0.00
2013-9-8,86.3,77.4,70.4,73.1,70.3,67.7,93,79,62,29.95,29.85,18,3,19,0.01
2013-9-9,95.0,81.5,71.0,76.8,72.3,68.8,96,76,50,29.89,29.81,16,4,16,0.00
2013-9-10,93.8,82.2,69.0,71.6,68.3,64.3,86,65,42,30.01,29.89,22,3,22,0.00
2013-9-11,90.3,79.5,72.8,72.8,68.4,64.9,84,70,51,30.05,29.98,23,4,23,0.00
2013-9-12,80.0,71.7,55.8,69.6,60.6,49.3,95,71,38,30.08,29.98,26,7,26,0.91
2013-9-13,70.3,58.8,48.5,51.0,46.4,37.7,93,67,32,30.18,30.06,16,5,16,0.00
2013-9-14,72.8,57.3,42.7,50.4,45.7,41.1,95,69,33,30.19,30.01,14,2,14,0.00
2013-9-15,65.5,59.3,52.5,61.7,54.5,47.1,94,84,70,30.16,29.97,17,4,17,0.11
2013-9-16,69.8,60.2,54.0,55.7,53.3,48.1,96,79,56,30.32,30.15,15,5,15,0.00
2013-9-17,73.5,61.7,49.5,60.0,54.5,47.0,94,78,57,30.29,30.08,14,2,14,0.00
2013-9-18,84.3,72.8,61.1,71.7,65.0,56.2,89,77,63,30.08,29.88,15,4,17,0.05
2013-9-19,88.7,78.1,67.4,73.7,69.7,63.5,95,77,56,29.92,29.75,32,5,32,0.58
2013-9-20,70.3,65.6,56.3,66.9,60.5,51.0,97,84,56,29.89,29.78,23,6,23,0.08
2013-9-21,68.8,57.8,49.2,54.7,50.6,46.9,93,79,50,29.94,29.86,17,6,17,0.00
2013-9-22,71.3,57.6,43.6,54.2,48.5,42.3,96,75,40,30.05,29.94,9,1,9,0.01
2013-9-23,74.3,60.5,46.1,53.5,48.8,43.7,92,68,41,30.07,29.95,15,4,15,0.00
2013-9-24,75.5,62.9,49.8,59.4,53.1,46.6,91,72,51,29.98,29.84,13,4,13,0.00
2013-9-25,78.8,65.4,53.0,63.0,55.5,50.0,90,72,51,29.91,29.85,12,3,12,0.00
2013-9-26,81.5,67.5,53.9,64.3,56.5,50.9,91,70,48,30.03,29.91,14,3,16,0.00
2013-9-27,82.2,67.9,55.3,62.0,53.6,49.9,83,62,35,30.11,29.99,20,4,22,0.00
2013-9-28,81.3,67.5,57.2,67.6,60.2,53.1,94,78,55,30.02,29.88,24,5,24,0.63
2013-9-29,70.9,58.7,48.2,56.3,49.4,43.2,97,75,37,30.07,29.98,13,3,13,0.00
2013-9-30,76.7,61.2,44.4,59.6,51.9,42.4,96,74,44,29.99,29.85,16,2,16,0.00
2013-10-1,77.8,68.5,60.5,67.9,64.3,58.8,96,87,69,29.97,29.88,15,3,15,0.00
2013-10-2,80.9,69.9,62.2,69.5,65.4,61.0,97,87,59,30.05,29.93,11,2,11,0.01
2013-10-3,75.8,68.8,67.4,70.4,67.0,65.9,96,94,84,29.93,29.89,11,3,12,0.71
2013-10-4,84.6,76.8,67.8,72.9,69.7,66.9,97,80,61,29.93,29.86,13,4,13,0.00
2013-10-5,73.5,70.4,65.8,70.8,67.6,62.7,97,91,79,29.89,29.76,23,3,23,0.02
2013-10-6,56.5,49.5,46.2,51.7,43.0,39.8,93,79,63,29.83,29.76,23,4,23,0.04
2013-10-7,69.4,56.0,45.3,51.0,47.5,43.5,96,76,45,30.09,29.82,23,5,23,0.00
2013-10-8,76.0,60.2,45.2,55.3,48.8,43.3,96,69,39,30.19,30.09,14,2,15,0.00
2013-10-9,73.7,58.3,42.9,51.2,47.5,40.9,95,71,38,30.21,30.09,12,2,12,0.00
2013-10-10,76.7,60.4,45.4,60.1,53.0,43.0,95,78,53,30.15,30.00,16,2,16,0.00
2013-10-11,78.4,66.1,55.0,61.9,56.6,53.0,95,74,47,30.03,29.87,22,5,22,0.00
2013-10-12,72.5,62.7,51.8,61.8,52.2,41.0,93,71,37,30.20,29.91,18,5,18,0.00
2013-10-13,68.3,53.1,41.1,43.3,37.4,30.3,88,60,26,30.40,30.20,15,3,15,0.00
2013-10-14,66.1,52.9,37.7,45.8,39.9,33.9,94,64,34,30.39,30.06,17,3,17,0.00
2013-10-15,70.7,59.6,47.7,61.4,51.8,41.5,94,76,58,30.06,29.79,25,6,25,0.02
2013-10-16,53.0,50.2,45.2,45.0,43.4,40.7,85,77,73,29.99,29.91,25,6,25,0.00
2013-10-17,61.7,51.2,46.3,46.7,42.9,37.5,95,75,43,29.98,29.85,27,3,27,0.14
2013-10-18,54.1,46.2,41.6,41.6,40.2,38.1,93,80,56,30.02,29.88,21,7,21,0.00
2013-10-19,54.9,46.8,37.8,40.6,38.1,35.8,93,74,49,29.99,29.85,13,4,31,0.01
2013-10-20,68.8,53.6,39.6,45.8,41.9,36.9,92,67,42,29.89,29.74,7,2,26,0.00
2013-10-21,58.0,40.1,29.6,47.9,29.4,24.5,90,68,41,30.04,29.84,24,5,28,0.00
2013-10-22,42.8,36.5,28.7,41.2,34.3,25.9,94,92,82,30.04,29.84,16,3,16,0.07
2013-10-23,44.9,38.7,32.2,36.3,32.1,28.2,94,78,54,30.11,29.99,19,8,21,0.26
2013-10-24,42.2,37.6,32.1,35.3,26.8,22.6,90,66,50,30.37,30.09,25,10,25,0.00
2013-10-25,53.1,40.0,25.5,34.7,27.9,22.7,92,65,35,30.47,30.16,10,3,24,0.00
2013-10-26,55.3,45.9,36.7,37.4,31.5,28.9,74,58,40,30.14,29.97,22,7,32,0.00
2013-10-27,56.8,47.0,27.3,35.3,31.9,24.8,93,58,40,30.12,30.00,13,1,20,0.00
2013-10-28,62.2,46.9,32.4,41.5,34.7,28.4,89,65,38,30.31,30.07,14,2,14,0.00
2013-10-29,56.7,48.3,40.1,51.8,42.8,37.5,96,82,58,30.31,30.10,11,3,13,0.01
2013-10-30,64.4,57.6,52.9,63.8,56.7,51.7,98,97,96,30.10,29.76,17,4,17,1.01
2013-10-31,64.3,56.9,45.4,63.3,55.3,42.9,97,94,90,29.76,29.28,22,6,26,1.00
2013-11-1,52.4,46.5,41.7,45.4,43.3,39.8,95,89,72,29.80,29.51,22,5,22,0.02
2013-11-2,50.9,42.6,32.6,40.7,36.8,30.5,93,81,54,30.18,29.80,23,7,23,0.00
2013-11-3,53.7,41.1,27.0,39.8,33.6,25.4,96,76,48,30.31,30.17,18,4,18,0.00
2013-11-4,56.6,50.9,44.7,46.0,41.8,37.1,79,71,59,30.20,30.08,24,7,24,0.00
2013-11-5,55.0,52.9,51.1,52.7,50.0,45.7,96,90,75,30.25,29.94,21,6,21,0.32
2013-11-6,57.3,45.9,34.5,56.2,42.9,30.1,96,89,80,30.24,29.83,28,9,28,0.62
2013-11-7,47.7,37.6,29.6,38.5,31.7,26.5,89,80,63,30.33,30.24,25,6,25,0.00
2013-11-12,31.2,23.5,16.8,22.4,18.1,13.4,86,80,68,30.80,30.58,14,8,16,0.00
2013-11-13,41.8,30.2,17.7,21.6,18.5,15.0,90,64,37,30.70,30.24,12,4,18,0.00
2013-11-14,51.7,40.9,31.2,28.0,24.0,20.8,66,52,35,30.24,29.99,11,4,17,0.00
2013-11-15,48.3,41.6,36.2,39.5,33.3,27.2,86,72,62,30.02,29.92,8,2,12,0.00
2013-11-16,60.0,53.4,39.4,56.4,50.2,36.4,92,89,83,29.91,29.57,19,9,32,0.06
2013-11-17,69.0,56.9,44.9,64.2,52.0,40.2,94,84,68,29.87,29.21,42,13,55,0.55
2013-11-18,46.8,39.8,31.2,39.7,31.4,26.8,89,73,56,30.31,29.88,29,11,30,0.00
2013-11-19,45.1,35.2,25.3,30.6,27.9,23.0,92,76,53,30.38,30.25,15,4,16,0.00
2013-11-20,41.6,37.2,32.7,38.8,33.0,28.6,93,85,73,30.26,30.05,22,8,22,0.13
2013-11-21,48.0,44.8,41.6,45.9,42.6,38.6,95,92,88,30.26,30.09,13,3,13,0.14
2013-11-22,41.9,35.3,25.5,39.9,32.4,23.2,94,89,80,30.55,30.24,21,10,21,0.08
2013-11-23,25.4,21.7,14.0,23.1,15.3,9.0,91,76,58,30.79,30.53,25,12,25,0.00
2013-11-24,28.5,19.4,10.2,14.2,9.1,-1.6,86,66,28,30.82,30.44,12,3,12,0.00
2013-11-25,34.7,29.5,23.5,26.0,19.9,13.4,80,67,56,30.44,30.15,18,4,18,0.00
2013-11-26,35.4,27.5,17.7,27.7,19.8,9.8,86,73,54,30.27,30.10,29,10,29,0.00
2013-11-27,28.1,20.0,12.7,14.4,10.5,7.2,79,67,49,30.37,30.27,20,7,20,0.00
2013-11-28,38.0,26.5,18.5,22.8,17.4,12.5,84,69,52,30.54,30.21,20,6,21,0.00
2013-11-29,37.4,26.9,14.1,24.4,19.4,11.1,92,74,54,30.65,30.40,15,3,15,0.00
2013-11-30,51.4,38.1,27.4,36.7,30.6,24.2,92,75,54,30.40,30.08,11,2,11,0.00
2013-12-1,49.2,39.2,29.1,35.3,31.8,26.5,93,75,56,30.14,29.97,7,1,9,0.00
2013-12-2,45.4,39.4,33.1,38.8,34.8,30.1,93,84,72,29.97,29.67,15,3,15,0.00
2013-12-3,50.5,44.6,37.8,49.7,43.6,36.4,97,96,93,29.69,29.61,17,4,17,0.00
2013-12-4,54.6,47.2,32.5,53.3,46.0,29.5,98,96,87,29.83,29.49,37,7,37,0.01
2013-12-5,32.5,23.1,19.4,29.4,16.9,12.4,89,77,68,30.34,29.82,29,14,29,0.00
2013-12-6,20.0,15.9,10.4,13.1,9.0,5.7,81,74,61,30.65,30.32,19,11,19,0.00
2013-12-7,21.2,12.2,5.8,7.5,5.0,2.3,85,73,49,30.79,30.59,13,6,13,0.00
2013-12-8,24.3,20.8,12.3,22.6,16.9,7.0,93,85,73,30.59,30.04,20,6,20,0.00
2013-12-9,24.0,15.2,1.8,21.4,9.8,-3.0,90,79,68,30.33,30.05,27,11,27,0.00
2013-12-10,25.2,15.8,2.7,14.5,7.6,-2.6,83,70,51,30.36,30.13,41,8,41,0.00
2013-12-11,22.0,11.4,2.7,17.1,4.2,-4.0,87,73,56,30.69,30.29,18,6,25,0.00
2013-12-12,30.7,16.7,1.4,18.4,8.7,-3.7,81,71,58,30.66,30.27,18,3,18,0.00
2013-12-13,38.0,27.9,17.5,30.0,22.4,12.3,95,81,58,30.27,30.04,9,1,9,0.00
2013-12-14,32.1,28.6,18.9,31.1,26.6,15.4,96,92,86,30.11,29.94,22,8,22,0.01
2013-12-15,19.0,15.4,11.3,15.5,11.1,7.3,89,83,72,30.17,30.09,22,7,22,0.00
2013-12-16,21.8,17.8,11.3,20.1,14.9,8.2,93,88,84,30.17,30.05,16,3,16,0.00
2013-12-17,36.7,29.2,21.1,29.3,22.1,14.3,94,75,64,30.25,30.10,27,13,27,0.09
2013-12-18,38.7,28.7,14.1,31.6,20.9,9.9,85,73,53,30.24,29.88,25,6,25,0.06
2013-12-19,44.6,40.1,34.6,43.2,36.5,31.2,95,87,78,29.91,29.75,12,4,12,0.04
2013-12-20,46.2,36.3,29.5,45.3,35.3,28.2,97,96,95,29.87,29.72,15,5,15,0.34
2013-12-21,29.6,28.9,28.4,28.4,27.5,26.9,95,94,94,29.89,29.80,14,7,15,0.00
2013-12-22,33.2,26.6,18.1,32.2,24.1,14.9,96,90,87,30.26,29.64,9,0,12,0.00
2013-12-23,19.1,10.3,4.2,16.2,5.9,-2.2,89,82,73,30.60,30.26,21,9,21,0.00
2013-12-24,20.7,9.2,-1.3,14.4,4.0,-6.2,87,79,74,30.67,30.38,19,5,19,0.00
2013-12-25,30.0,26.1,20.8,27.0,22.9,14.4,94,87,75,30.38,30.20,27,6,28,0.00
2013-12-26,37.8,30.4,19.3,32.8,25.9,16.9,91,84,73,30.35,30.20,15,2,16,0.10
2013-12-27,44.5,36.0,25.2,35.2,31.0,23.5,95,82,69,30.34,30.16,11,2,11,0.13
2013-12-28,52.1,42.4,34.6,37.5,34.2,31.0,87,73,56,30.16,29.87,12,2,13,0.00
2013-12-29,39.2,24.0,5.1,32.5,20.2,-0.5,94,85,76,30.31,29.83,29,14,29,0.00
2013-12-30,17.1,8.8,0.8,11.1,2.4,-4.7,80,75,58,30.41,30.24,17,3,17,0.00
2013-12-31,22.7,17.1,10.8,16.2,12.1,7.3,87,81,73,30.44,30.25,15,6,15,0.00
2014-1-1,23.4,19.8,13.0,20.1,16.6,10.4,91,87,82,30.26,30.17,21,9,21,0.00
2014-1-2,15.3,11.1,1.1,11.2,7.0,-2.8,89,83,78,30.51,30.19,23,12,23,0.00